| time (UTC) | temp F | wind direction | speed MPH | gust MPH | rain 1hr in | rain 24hr in | rain mn in | humidity % | barometer mb |
| 20260507003101 | 56 | 298 | 1.0 | 5.0 | 0.00 | 0.00 | 0.00 | 81 | 1019.4 |
| 20260507001558 | 56 | 277 | 2.0 | 4.0 | 0.00 | 0.00 | 0.00 | 80 | 1019.3 |
| 20260507000054 | 56 | 278 | 1.0 | 4.0 | 0.00 | 0.00 | 0.00 | 80 | 1019.2 |
| 20260506234555 | 57 | 263 | 2.0 | 5.0 | 0.00 | 0.00 | 0.00 | 77 | 1019.2 |
| 20260506233052 | 57 | 284 | 2.0 | 3.0 | 0.00 | 0.00 | 0.00 | 76 | 1019.3 |
| 20260506231555 | 57 | 0 | 0.0 | 1.0 | 0.00 | 0.00 | 0.00 | 74 | 1019.4 |
| 20260506230056 | 57 | 210 | 0.0 | 4.0 | 0.00 | 0.00 | 0.00 | 75 | 1019.4 |
| 20260506224607 | 57 | 196 | 3.0 | 5.0 | 0.00 | 0.00 | 0.00 | 74 | 1019.5 |
| 20260506223101 | 57 | 207 | 2.0 | 5.0 | 0.00 | 0.00 | 0.00 | 73 | 1019.4 |
| 20260506221558 | 58 | 200 | 2.0 | 7.0 | 0.00 | 0.00 | 0.00 | 73 | 1019.5 |
| 20260506220055 | 58 | 247 | 0.0 | 4.0 | 0.00 | 0.00 | 0.00 | 78 | 1019.6 |
| 20260506214609 | 57 | 0 | 1.0 | 4.0 | 0.00 | 0.00 | 0.00 | 78 | 1019.6 |
| 20260506213057 | 57 | 221 | 2.0 | 6.0 | 0.00 | 0.00 | 0.00 | 79 | 1019.7 |
| 20260506211558 | 57 | 189 | 2.0 | 5.0 | 0.00 | 0.00 | 0.00 | 74 | 1019.7 |
| 20260506210100 | 57 | 208 | 0.0 | 7.0 | 0.00 | 0.00 | 0.00 | 75 | 1019.8 |
| 20260506204624 | 57 | 210 | 3.0 | 7.0 | 0.00 | 0.00 | 0.00 | 74 | 1019.8 |
| 20260506203059 | 56 | 180 | 2.0 | 5.0 | 0.00 | 0.00 | 0.00 | 74 | 1019.6 |
| 20260506201558 | 56 | 144 | 1.0 | 5.0 | 0.00 | 0.00 | 0.00 | 76 | 1019.6 |
| 20260506200052 | 55 | 190 | 2.0 | 7.0 | 0.00 | 0.00 | 0.00 | 80 | 1019.5 |
| 20260506193059 | 55 | 196 | 2.0 | 8.0 | 0.00 | 0.00 | 0.00 | 77 | 1019.4 |
| 20260506191554 | 54 | 194 | 4.0 | 11.0 | 0.00 | 0.00 | 0.00 | 77 | 1019.3 |
| 20260506190053 | 54 | 206 | 4.0 | 10.0 | 0.00 | 0.00 | 0.00 | 78 | 1019.3 |
| 20260506184557 | 54 | 234 | 2.0 | 7.0 | 0.00 | 0.00 | 0.00 | 84 | 1019.3 |
| 20260506183105 | 53 | 140 | 5.0 | 13.0 | 0.00 | 0.00 | 0.00 | 80 | 1019.2 |
| 20260506181558 | 53 | 189 | 1.0 | 7.0 | 0.00 | 0.00 | 0.00 | 81 | 1019.2 |
| 20260506174556 | 52 | 193 | 3.0 | 7.0 | 0.00 | 0.00 | 0.00 | 83 | 1019.2 |
| 20260506173054 | 52 | 199 | 4.0 | 10.0 | 0.00 | 0.00 | 0.00 | 83 | 1018.8 |
| 20260506171604 | 52 | 165 | 3.0 | 12.0 | 0.00 | 0.00 | 0.00 | 84 | 1018.9 |
| 20260506170107 | 52 | 218 | 3.0 | 10.0 | 0.00 | 0.00 | 0.00 | 86 | 1019.1 |
| 20260506164600 | 52 | 158 | 3.0 | 10.0 | 0.00 | 0.00 | 0.00 | 85 | 1018.9 |
| 20260506163104 | 52 | 166 | 2.0 | 9.0 | 0.00 | 0.00 | 0.00 | 86 | 1018.9 |
| 20260506161606 | 52 | 183 | 1.0 | 7.0 | 0.00 | 0.00 | 0.00 | 87 | 1018.8 |
| 20260506160055 | 51 | 214 | 2.0 | 7.0 | 0.00 | 0.00 | 0.00 | 88 | 1018.8 |
| 20260506154612 | 51 | 214 | 1.0 | 9.0 | 0.00 | 0.00 | 0.00 | 89 | 1018.3 |
| 20260506153056 | 51 | 132 | 3.0 | 12.0 | 0.00 | 0.00 | 0.00 | 90 | 1018.3 |
| 20260506151558 | 51 | 235 | 0.0 | 6.0 | 0.00 | 0.00 | 0.00 | 91 | 1018.4 |
| 20260506150054 | 51 | 195 | 3.0 | 7.0 | 0.00 | 0.00 | 0.00 | 90 | 1018.4 |
| 20260506144602 | 51 | 0 | 1.0 | 7.0 | 0.00 | 0.00 | 0.00 | 90 | 1018.7 |
| 20260506143056 | 51 | 196 | 2.0 | 6.0 | 0.00 | 0.00 | 0.00 | 90 | 1017.9 |
| 20260506141602 | 51 | 213 | 1.0 | 7.0 | 0.00 | 0.00 | 0.00 | 90 | 1018.2 |
| 20260506140100 | 51 | 196 | 2.0 | 7.0 | 0.00 | 0.00 | 0.00 | 90 | 1018.2 |
| 20260506134557 | 50 | 208 | 0.0 | 5.0 | 0.00 | 0.00 | 0.00 | 91 | 1018.1 |
| 20260506133102 | 50 | 210 | 1.0 | 7.0 | 0.00 | 0.00 | 0.00 | 91 | 1017.9 |
| 20260506131555 | 50 | 185 | 1.0 | 3.0 | 0.00 | 0.00 | 0.00 | 90 | 1018.0 |
| 20260506130054 | 50 | 211 | 1.0 | 6.0 | 0.00 | 0.00 | 0.00 | 90 | 1018.0 |
| 20260506124556 | 50 | 239 | 0.0 | 4.0 | 0.00 | 0.00 | 0.00 | 90 | 1017.8 |
| 20260506123052 | 51 | 172 | 1.0 | 6.0 | 0.00 | 0.00 | 0.00 | 90 | 1017.3 |
| 20260506121553 | 51 | 214 | 1.0 | 6.0 | 0.00 | 0.00 | 0.00 | 89 | 1017.5 |
| 20260506120055 | 51 | 212 | 2.0 | 6.0 | 0.00 | 0.00 | 0.00 | 89 | 1017.4 |
| 20260506114600 | 51 | 163 | 2.0 | 4.0 | 0.00 | 0.00 | 0.00 | 89 | 1017.2 |
| 20260506113102 | 51 | 195 | 2.0 | 6.0 | 0.00 | 0.00 | 0.00 | 89 | 1017.2 |
| 20260506111602 | 51 | 227 | 1.0 | 4.0 | 0.00 | 0.00 | 0.00 | 88 | 1017.2 |
| 20260506110058 | 51 | 175 | 1.0 | 6.0 | 0.00 | 0.00 | 0.00 | 88 | 1017.1 |
| 20260506104600 | 51 | 199 | 2.0 | 7.0 | 0.00 | 0.00 | 0.00 | 88 | 1017.2 |
| 20260506103100 | 51 | 215 | 1.0 | 5.0 | 0.00 | 0.00 | 0.00 | 89 | 1017.1 |
| 20260506101556 | 51 | 196 | 2.0 | 7.0 | 0.00 | 0.00 | 0.00 | 89 | 1017.0 |
| 20260506100101 | 51 | 0 | 1.0 | 4.0 | 0.00 | 0.00 | 0.00 | 90 | 1017.0 |
| 20260506094555 | 51 | 184 | 4.0 | 12.0 | 0.00 | 0.00 | 0.00 | 89 | 1016.8 |
| 20260506093056 | 51 | 209 | 2.0 | 10.0 | 0.00 | 0.00 | 0.00 | 89 | 1016.7 |
| 20260506091557 | 51 | 225 | 2.0 | 8.0 | 0.00 | 0.00 | 0.00 | 89 | 1016.6 |
| 20260506090057 | 51 | 201 | 1.0 | 4.0 | 0.00 | 0.00 | 0.00 | 88 | 1016.5 |
| 20260506084608 | 51 | 208 | 1.0 | 5.0 | 0.00 | 0.00 | 0.00 | 88 | 1016.3 |
| 20260506083100 | 51 | 208 | 1.0 | 5.0 | 0.00 | 0.00 | 0.00 | 87 | 1016.3 |
| 20260506081602 | 51 | 213 | 0.0 | 4.0 | 0.00 | 0.00 | 0.00 | 87 | 1016.1 |
| 20260506073057 | 52 | 217 | 1.0 | 5.0 | 0.00 | 0.00 | 0.00 | 85 | 1015.9 |
| 20260506071556 | 53 | 210 | 2.0 | 6.0 | 0.00 | 0.00 | 0.00 | 84 | 1015.8 |
| 20260506061613 | 54 | 203 | 3.0 | 9.0 | 0.00 | 0.00 | 0.00 | 82 | 1015.4 |
| 20260506060104 | 55 | 206 | 3.0 | 6.0 | 0.00 | 0.00 | 0.00 | 81 | 1015.4 |
| 20260506044632 | 58 | 75 | 1.0 | 8.0 | 0.00 | 0.00 | 0.00 | 78 | 1014.9 |
| 20260506043055 | 58 | 209 | 2.0 | 7.0 | 0.00 | 0.00 | 0.00 | 79 | 1014.8 |
| 20260506041555 | 57 | 0 | 0.0 | 2.0 | 0.00 | 0.00 | 0.00 | 81 | 1014.7 |
| 20260506040056 | 58 | 0 | 0.0 | 0.0 | 0.00 | 0.00 | 0.00 | 81 | 1014.4 |
| 20260506034556 | 59 | 0 | 0.0 | 0.0 | 0.00 | 0.00 | 0.00 | 79 | 1014.5 |
| 20260506033053 | 61 | 0 | 0.0 | 1.0 | 0.00 | 0.00 | 0.00 | 75 | 1014.2 |
| 20260506031553 | 62 | 220 | 0.0 | 3.0 | 0.00 | 0.00 | 0.00 | 71 | 1014.2 |
| 20260506030057 | 64 | 193 | 0.0 | 5.0 | 0.00 | 0.00 | 0.00 | 69 | 1014.1 |
| 20260506024559 | 66 | 191 | 2.0 | 7.0 | 0.00 | 0.00 | 0.00 | 65 | 1014.0 |
| 20260506023100 | 68 | 232 | 1.0 | 4.0 | 0.00 | 0.00 | 0.00 | 62 | 1014.0 |
| 20260506021606 | 69 | 0 | 0.0 | 5.0 | 0.00 | 0.00 | 0.00 | 60 | 1013.9 |
| 20260506020052 | 69 | 0 | 0.0 | 2.0 | 0.00 | 0.00 | 0.00 | 65 | 1013.9 |
| 20260506014554 | 68 | 274 | 1.0 | 4.0 | 0.00 | 0.00 | 0.00 | 63 | 1013.9 |
| 20260506013104 | 68 | 255 | 2.0 | 5.0 | 0.00 | 0.00 | 0.00 | 63 | 1014.0 |
| 20260506011603 | 68 | 264 | 2.0 | 4.0 | 0.00 | 0.00 | 0.00 | 63 | 1013.8 |
| 20260506010117 | 68 | 272 | 1.0 | 5.0 | 0.00 | 0.00 | 0.00 | 63 | 1013.9 |
| 20260506004558 | 68 | 263 | 2.0 | 4.0 | 0.00 | 0.00 | 0.00 | 66 | 1013.9 |